TimeEST,TemperatureF,Dew PointF,Humidity,Sea Level PressureIn,VisibilityMPH,Wind Direction,Wind SpeedMPH,Gust SpeedMPH,PrecipitationIn,Events,Conditions,WindDirDegrees,DateUTC
12:15 AM,69.8,68.0,94,30.00,10.0,SSE,9.2,-,N/A,,Scattered Clouds,150,2013-12-22 05:15:00
12:35 AM,69.8,68.0,94,30.00,10.0,South,9.2,-,N/A,,Scattered Clouds,170,2013-12-22 05:35:00
12:55 AM,69.8,68.0,94,30.00,10.0,SSE,9.2,17.3,N/A,,Clear,160,2013-12-22 05:55:00
1:15 AM,69.8,68.0,94,30.00,10.0,South,9.2,17.3,N/A,,Clear,180,2013-12-22 06:15:00
1:35 AM,69.8,68.0,94,30.00,10.0,South,6.9,17.3,N/A,,Scattered Clouds,180,2013-12-22 06:35:00
1:55 AM,68.0,66.2,94,29.99,10.0,South,8.1,-,N/A,,Clear,170,2013-12-22 06:55:00
2:15 AM,68.0,66.2,94,30.01,10.0,South,4.6,-,N/A,,Scattered Clouds,190,2013-12-22 07:15:00
2:35 AM,68.0,66.2,94,30.01,10.0,South,10.4,17.3,N/A,,Mostly Cloudy,180,2013-12-22 07:35:00
2:55 AM,68.0,66.2,94,30.03,10.0,SW,5.8,-,N/A,,Mostly Cloudy,220,2013-12-22 07:55:00
3:15 AM,68.0,66.2,94,30.03,10.0,South,4.6,-,N/A,,Mostly Cloudy,190,2013-12-22 08:15:00
3:35 AM,68.0,66.2,94,30.02,10.0,South,6.9,-,N/A,,Mostly Cloudy,180,2013-12-22 08:35:00
3:55 AM,68.0,68.0,100,30.02,7.0,South,5.8,-,N/A,Rain,Light Rain,170,2013-12-22 08:55:00
4:15 AM,66.2,66.2,100,30.01,10.0,SSE,5.8,-,N/A,,Mostly Cloudy,160,2013-12-22 09:15:00
4:35 AM,66.2,66.2,100,30.00,10.0,South,8.1,-,N/A,,Scattered Clouds,170,2013-12-22 09:35:00
4:55 AM,66.2,66.2,100,30.00,10.0,South,6.9,-,N/A,,Mostly Cloudy,170,2013-12-22 09:55:00
5:15 AM,66.2,66.2,100,29.99,10.0,South,9.2,-,N/A,,Overcast,180,2013-12-22 10:15:00
5:35 AM,68.0,68.0,100,29.99,10.0,South,6.9,-,N/A,,Overcast,170,2013-12-22 10:35:00
5:55 AM,68.0,68.0,100,29.99,7.0,SSE,9.2,-,N/A,,Overcast,160,2013-12-22 10:55:00
6:15 AM,68.0,68.0,100,30.00,10.0,South,6.9,-,N/A,,Mostly Cloudy,180,2013-12-22 11:15:00
6:35 AM,68.0,68.0,100,30.00,10.0,SSW,8.1,18.4,N/A,,Overcast,200,2013-12-22 11:35:00
6:55 AM,69.8,69.8,100,30.00,10.0,South,8.1,16.1,N/A,,Overcast,190,2013-12-22 11:55:00
7:15 AM,68.0,68.0,100,30.00,7.0,South,11.5,20.7,N/A,,Overcast,190,2013-12-22 12:15:00
7:35 AM,68.0,68.0,100,30.01,7.0,South,10.4,20.7,N/A,,Drizzle,190,2013-12-22 12:35:00
7:55 AM,68.0,68.0,100,30.02,7.0,South,11.5,19.6,N/A,Rain,Light Rain,190,2013-12-22 12:55:00
8:15 AM,68.0,68.0,100,30.02,7.0,South,10.4,19.6,N/A,,Overcast,190,2013-12-22 13:15:00
8:35 AM,68.0,68.0,100,30.03,4.0,SSW,9.2,18.4,N/A,Rain,Light Rain,200,2013-12-22 13:35:00
8:55 AM,68.0,68.0,100,30.05,4.0,SSW,11.5,19.6,N/A,Rain,Rain,210,2013-12-22 13:55:00
9:15 AM,68.0,68.0,100,30.06,2.5,SSW,5.8,-,N/A,,Drizzle,200,2013-12-22 14:15:00
9:35 AM,68.0,68.0,100,30.06,5.0,South,10.4,16.1,N/A,,Overcast,180,2013-12-22 14:35:00
9:55 AM,68.0,68.0,100,30.06,10.0,South,9.2,-,N/A,,Mostly Cloudy,190,2013-12-22 14:55:00
10:15 AM,71.6,71.6,100,30.06,10.0,South,11.5,17.3,N/A,,Mostly Cloudy,190,2013-12-22 15:15:00
10:35 AM,71.6,71.6,100,30.06,10.0,South,9.2,16.1,N/A,,Mostly Cloudy,190,2013-12-22 15:35:00
10:55 AM,75.2,71.6,89,30.05,7.0,South,9.2,23.0,N/A,,Mostly Cloudy,190,2013-12-22 15:55:00
11:15 AM,75.2,69.8,83,30.06,10.0,SSW,12.7,23.0,N/A,,Mostly Cloudy,200,2013-12-22 16:15:00
11:35 AM,75.2,69.8,83,30.05,10.0,SSW,10.4,19.6,N/A,,Mostly Cloudy,200,2013-12-22 16:35:00
11:55 AM,75.2,69.8,83,30.04,10.0,South,15.0,23.0,N/A,,Mostly Cloudy,180,2013-12-22 16:55:00
12:15 PM,75.2,69.8,83,30.04,10.0,South,12.7,18.4,N/A,,Mostly Cloudy,190,2013-12-22 17:15:00
12:35 PM,75.2,68.0,78,30.03,10.0,South,15.0,21.9,N/A,,Mostly Cloudy,190,2013-12-22 17:35:00
12:55 PM,75.2,69.8,83,30.03,7.0,SW,6.9,-,N/A,Rain,Light Rain,230,2013-12-22 17:55:00
1:10 PM,68.0,66.2,94,30.04,2.0,West,12.7,26.5,N/A,Rain,Heavy Rain,260,2013-12-22 18:10:00
1:35 PM,66.2,66.2,100,30.03,4.0,WSW,3.5,-,N/A,Rain,Rain,240,2013-12-22 18:35:00
1:55 PM,66.2,66.2,100,30.03,3.0,WNW,4.6,-,N/A,Rain,Heavy Rain,290,2013-12-22 18:55:00
2:15 PM,64.4,64.4,100,30.02,2.0,West,6.9,-,N/A,Rain,Heavy Rain,280,2013-12-22 19:15:00
2:35 PM,64.4,64.4,100,30.02,10.0,Calm,Calm,-,N/A,Rain,Light Rain,0,2013-12-22 19:35:00
2:55 PM,64.4,64.4,100,30.02,10.0,Calm,Calm,-,N/A,,Drizzle,0,2013-12-22 19:55:00
3:15 PM,64.4,64.4,100,30.02,7.0,Calm,Calm,-,N/A,Rain,Light Rain,0,2013-12-22 20:15:00
3:35 PM,64.4,64.4,100,30.03,7.0,NW,4.6,-,N/A,Rain,Rain,320,2013-12-22 20:35:00
3:55 PM,64.4,64.4,100,30.03,4.0,NW,4.6,-,N/A,Rain,Heavy Rain,320,2013-12-22 20:55:00
4:15 PM,64.4,64.4,100,30.03,2.0,North,3.5,-,N/A,Rain-Thunderstorm,Heavy Thunderstorms and Rain,350,2013-12-22 21:15:00
4:35 PM,62.6,62.6,100,30.04,2.0,Calm,Calm,-,N/A,Rain,Heavy Rain,0,2013-12-22 21:35:00
4:55 PM,62.6,62.6,100,30.05,2.0,NW,3.5,-,N/A,Rain,Heavy Rain,320,2013-12-22 21:55:00
5:15 PM,62.6,62.6,100,30.07,2.5,Calm,Calm,-,N/A,Rain,Heavy Rain,0,2013-12-22 22:15:00
5:35 PM,62.6,62.6,100,30.07,7.0,NNW,4.6,-,N/A,Rain,Heavy Rain,330,2013-12-22 22:35:00
5:55 PM,62.6,62.6,100,30.05,5.0,Calm,Calm,-,N/A,Rain,Rain,0,2013-12-22 22:55:00
6:15 PM,60.8,60.8,100,30.04,7.0,Calm,Calm,-,N/A,Rain,Light Rain,0,2013-12-22 23:15:00
6:35 PM,60.8,-9999,N/A,30.04,5.0,SE,4.6,-,N/A,Rain,Rain,130,2013-12-22 23:35:00
6:55 PM,62.6,-9999,N/A,30.04,7.0,ESE,8.1,-,N/A,Rain,Rain,120,2013-12-22 23:55:00
7:15 PM,62.6,-9999,N/A,30.05,10.0,Calm,Calm,-,N/A,Rain,Rain,0,2013-12-23 00:15:00
7:35 PM,62.6,-9999,N/A,30.07,5.0,South,4.6,-,N/A,Rain,Rain,190,2013-12-23 00:35:00
7:55 PM,62.6,62.6,100,30.05,4.0,ESE,3.5,-,N/A,Rain,Rain,110,2013-12-23 00:55:00
8:15 PM,62.6,-9999,N/A,30.04,7.0,SE,3.5,-,N/A,Rain,Light Rain,130,2013-12-23 01:15:00
8:35 PM,62.6,-9999,N/A,30.04,4.0,Calm,Calm,-,N/A,Rain,Rain,0,2013-12-23 01:35:00
8:55 PM,62.6,-9999,N/A,30.04,4.0,SE,6.9,-,N/A,Rain,Rain,140,2013-12-23 01:55:00
9:15 PM,62.6,-9999,N/A,30.03,7.0,SE,3.5,-,N/A,Rain,Rain,130,2013-12-23 02:15:00
9:35 PM,62.6,-9999,N/A,30.04,1.8,Calm,Calm,-,N/A,Rain,Heavy Rain,0,2013-12-23 02:35:00
9:55 PM,62.6,-9999,N/A,30.05,2.5,WSW,3.5,-,N/A,Rain-Thunderstorm,Heavy Thunderstorms and Rain,250,2013-12-23 02:55:00
10:15 PM,62.6,-9999,N/A,30.05,1.5,Calm,Calm,-,N/A,Rain,Heavy Rain,0,2013-12-23 03:15:00
10:35 PM,62.6,-9999,N/A,30.06,3.0,Calm,Calm,-,N/A,Rain,Heavy Rain,0,2013-12-23 03:35:00
10:55 PM,62.6,-9999,N/A,30.06,5.0,Calm,Calm,-,N/A,Rain,Light Rain,0,2013-12-23 03:55:00
11:15 PM,62.6,-9999,N/A,30.07,4.0,Calm,Calm,-,N/A,,Light Drizzle,0,2013-12-23 04:15:00
11:35 PM,62.6,-9999,N/A,30.06,10.0,NW,4.6,-,N/A,Rain-Thunderstorm,Light Thunderstorms and Rain,310,2013-12-23 04:35:00
11:55 PM,64.4,-9999,N/A,30.05,7.0,Calm,Calm,-,N/A,Rain,Light Rain,0,2013-12-23 04:55:00